Location: Unspecified
(64.9000°N, 0.0000°E)
Time: 02:51:57
(UTC+00:00)

Altair - Pass Details

Date: 19 June 2019
Orbit: 1501 x 1683 km, 47.2° (Epoch: 22 July)

Event Time Altitude Azimuth Distance (km) Brightness Sun altitude
Rises 21:47:36 0° 223° (SW) 4,768 9.9 2.0°
Reaches altitude 10° 21:51:21 10° 211° (SSW) 3,814 9.3 1.8°
Maximum altitude 21:58:39 25° 162° (SSE) 2,866 8.4 1.5°
Drops below altitude 10° 22:06:08 10° 113° (ESE) 3,917 9.2 1.1°
Sets 22:10:02 0° 101° (E) 4,922 9.8 0.9°
